Paganella, Italy

10:08 AM CEST on July 26, 2017 (GMT +0200)
Paganella

Weather History for LIVP - January, 2014

Change the Weather History Date:

Wednesday, January 22, 2014

  Actual Average Record
Temperature  
Mean Temperature 24 °F -  
Max Temperature 26 °F 28 °F 41 °F (2008)
Min Temperature 23 °F 19 °F 6 °F (2011)
Degree Days  
Heating Degree Days 40    
Moisture  
Dew Point 20 °F    
Average Humidity 74    
Maximum Humidity 93    
Minimum Humidity 58    
Precipitation  
Precipitation 0.00 in 0.03 in - ()
Sea Level Pressure  
Sea Level Pressure 29.72 in    
Wind  
Wind Speed 7 mph ()    
Max Wind Speed 16 mph    
Max Gust Speed -    
Visibility 3.3 miles    
Events Fog    
Averages and records for this station are not official NWS values.
T = Trace of Precipitation, MM = Missing Value Source: Averaged Metar Reports

Daily Weather History Graph

Daily Weather History Graph

Search for Another Location

Airport or City:

Trip Planner

Search our weather history database for the weather conditions in past years. The results will help you decide how hot, cold, wet, or windy it might be!

Date:

Astronomy

Jan. 22, 2014 Rise Set
Actual Time 7:49 AM CET 5:06 PM CET
Civil Twilight 7:16 AM CET 5:38 PM CET
Nautical Twilight 6:39 AM CET 6:15 PM CET
Astronomical Twilight 6:04 AM CET 6:51 PM CET
Moon 11:45 PM CET (1/22) 10:19 AM CET (1/22)
Length of Visible Light 10h 22m
Length of Day
9h 16m
Waning Gibbous, 68% of the Moon is Illuminated
Jan 22
Waning Gibbous
Jan 24
Last Quarter
Jan 30
New
Feb 6
First Quarter
Feb 15
Full

Hourly Weather History & Observations

Time (CET) Temp. Windchill Dew Point Humidity Pressure Visibility Wind Dir Wind Speed Gust Speed Precip Events Conditions
12:00 AM 24 °F - 17 °F 67%  in 25 mi North 6.9 mph - -   Mostly Cloudy
12:55 AM 24.8 °F 20.5 °F 17.6 °F 74% 29.68 in - Variable 3.5 mph - N/A   Clear
1:00 AM 25 °F - 18 °F 66%  in 25 mi 3.5 mph - -   Scattered Clouds
1:55 AM 24.8 °F 20.5 °F 15.8 °F 69% 29.68 in - SW 3.5 mph - N/A   Clear
2:00 AM 25 °F - 16 °F 58%  in 25 mi SW 3.5 mph - -   Scattered Clouds
2:55 AM 24.8 °F 16.9 °F 17.6 °F 74% 29.68 in - SSW 6.9 mph - N/A   Clear
3:00 AM 26 °F - 18 °F 62%  in 25 mi SSW 6.9 mph - -   Scattered Clouds
3:55 AM 26.6 °F 16.2 °F 19.4 °F 74% 29.68 in - SSW 11.5 mph - N/A   Clear
4:00 AM 26 °F - 20 °F 68%  in 25 mi SSW 11.5 mph - -   Scattered Clouds
4:55 AM 24.8 °F 12.9 °F 19.4 °F 80% 29.68 in - SSW 13.8 mph - N/A   Clear
5:00 AM 26 °F - 19 °F 64%  in 25 mi SSW 13.8 mph - -   Scattered Clouds
5:55 AM 24.8 °F 11.9 °F 19.4 °F 80% 29.68 in - SSW 16.1 mph - N/A   Clear
6:00 AM 25 °F - 19 °F 68%  in 25 mi SSW 16.1 mph - -   Scattered Clouds
6:55 AM 24.8 °F 12.4 °F 19.4 °F 80% 29.68 in - SSW 15.0 mph - N/A   Clear
7:00 AM 25 °F - 19 °F 68%  in 31 mi SSW 15.0 mph - -   Scattered Clouds
7:55 AM 24.8 °F 13.4 °F 17.6 °F 74% 29.71 in - SW 12.7 mph - N/A   Clear
8:00 AM 25 °F - 18 °F 66%  in 44 mi SW 12.7 mph - -   Scattered Clouds
8:55 AM 24.8 °F 14.6 °F 19.4 °F 80% 29.71 in - WSW 10.4 mph - N/A   Clear
9:00 AM 25 °F - 19 °F 69%  in 44 mi WSW 10.4 mph - -   Scattered Clouds
9:55 AM 24.8 °F 15.3 °F 19.4 °F 80% 29.71 in - SW 9.2 mph - N/A   Clear
10:00 AM 25 °F - 20 °F 74%  in 44 mi SW 9.2 mph - -   Scattered Clouds
10:55 AM 24.8 °F 14.6 °F 21.2 °F 86% 29.71 in - SW 10.4 mph - N/A   Clear
11:00 AM 25 °F - 20 °F 75%  in 44 mi SW 10.4 mph - -   Scattered Clouds
11:55 AM 26.6 °F 16.8 °F 21.2 °F 80% 29.71 in - SW 10.4 mph - N/A   Clear
12:00 PM 26 °F - 21 °F 72%  in 44 mi SW 10.4 mph - -   Clear
12:55 PM 24.8 °F 16.1 °F 21.2 °F 86% 29.71 in 6.2 mi SW 8.1 mph - N/A   Partly Cloudy
1:00 PM 26 °F - 20 °F 71%  in 25 mi SW 8.1 mph - -   Scattered Clouds
1:55 PM 24.8 °F 13.4 °F 21.2 °F 86% 29.71 in 6.2 mi SW 12.7 mph - N/A   Partly Cloudy
2:00 PM 25 °F - 21 °F 78%  in 0 mi SW 12.7 mph - - Fog Fog
2:55 PM 26.6 °F 20.0 °F 23.0 °F 86% 29.71 in 6.2 mi SW 5.8 mph - N/A   Partly Cloudy
3:00 PM 27 °F - 24 °F 83%  in 0 mi SW 5.8 mph - - Fog Fog
3:55 PM 24.8 °F - 21.2 °F 86% 29.71 in 6.2 mi Variable 2.3 mph - N/A   Partly Cloudy
4:00 PM 25 °F - 22 °F 82%  in 31 mi 2.3 mph - - Fog Light Fog
4:55 PM 26.6 °F 22.6 °F 19.4 °F 74% 29.74 in 6.2 mi Variable 3.5 mph - N/A   Partly Cloudy
5:00 PM 27 °F - 20 °F 64%  in 16 mi 3.5 mph - -   Scattered Clouds
5:55 PM 26.6 °F 22.6 °F 19.4 °F 74% 29.74 in 6.2 mi Variable 3.5 mph - N/A   Partly Cloudy
6:00 PM 27 °F - 19 °F 63%  in 9 mi 3.5 mph - -   Scattered Clouds
6:55 PM 26.6 °F - 17.6 °F 69% 29.74 in 1.2 mi Variable 2.3 mph - N/A   Mist
7:00 PM 26 °F - 17 °F 59%  in 1 mi 2.3 mph - -   Mist
7:55 PM 26.6 °F - 19.4 °F 74% 29.77 in 1.2 mi Calm Calm - N/A   Mist
8:00 PM 26 °F - 19 °F 65%  in 1 mi Calm Calm - -   Mist
8:55 PM 24.8 °F 20.5 °F 19.4 °F 80% 29.80 in 1.2 mi SSW 3.5 mph - N/A   Mist
9:00 PM 25 °F - 20 °F 72%  in 1 mi SSW 3.5 mph - -   Mist
9:55 PM 24.8 °F 17.9 °F 19.4 °F 80% 29.80 in 0.1 mi SSW 5.8 mph - N/A Fog Light Freezing Fog
10:00 PM 25 °F - 19 °F 69%  in 0 mi SSW 5.8 mph - - Fog Fog
10:55 PM 24.8 °F 14.6 °F 21.2 °F 86% 29.80 in 0.0 mi SSW 10.4 mph - N/A Fog Light Freezing Fog
11:00 PM 25 °F - 22 °F 82%  in 0 mi SSW 10.4 mph - - Fog Heavy Fog
11:55 PM 24.8 °F 15.3 °F 23.0 °F 93% 29.80 in 0.0 mi SW 9.2 mph - N/A Fog Light Freezing Fog